Weather History for Madera, CA

Change the Weather History Date:

Tuesday, December 25, 2012

  Actual Average Record
Temperature  
Mean Temperature 47 °F 44 °F  
Max Temperature 50 °F 53 °F 67 °F (2013)
Min Temperature 43 °F 36 °F 24 °F (1998)
Degree Days  
Heating Degree Days 18    
Month to date heating degree days 398  
Since 1 July heating degree days 766  
Cooling Degree Days 0    
Month to date cooling degree days 0  
Year to date cooling degree days 1737  
Moisture  
Dew Point 44 °F    
Average Humidity 90    
Maximum Humidity 100    
Minimum Humidity 80    
Precipitation  
Precipitation 0.36 in 0.07 in 0.54 in (2010)
Month to date precipitation 2.23 1.28  
Year to date precipitation 10.63 11.60  
Since 1 July precipitation 4.41 3.60  
Snow  
Snow 0.00 in - - ()
Month to date snowfall 0.0  
Since 1 July snowfall 0.0  
Snow Depth 0.00 in    
Sea Level Pressure  
Sea Level Pressure 30.09 in    
Wind  
Wind Speed 3 mph (ESE)    
Max Wind Speed 21 mph    
Max Gust Speed 24 mph    
Visibility 4 miles    
Events Fog , Rain    
T = Trace of Precipitation, MM = Missing Value Source: NWS Daily Summary

Daily Weather History Graph

Daily Weather History Graph

Search for Another Location

Airport:

Trip Planner

Search our weather history database for the weather conditions in past years. The results will help you decide how hot, cold, wet, or windy it might be!

Date:

Astronomy

Dec. 25, 2012 Rise Set
Actual Time 7:11 AM PST 4:49 PM PST
Civil Twilight 6:42 AM PST 5:18 PM PST
Nautical Twilight 6:10 AM PST 5:51 PM PST
Astronomical Twilight 5:38 AM PST 6:23 PM PST
Moon 3:00 PM PST (12/25) 4:49 AM PST (12/25)
Length of Visible Light 10h 35m
Length of Day
9h 37m
Waxing Gibbous, 94% of the Moon is Illuminated
Dec 25
Waxing Gibbous
Dec 28
Full
Jan 4
Last Quarter
Jan 11
New
Jan 18
First Quarter

Hourly Weather History & Observations

Time (PST) Temp. Windchill Dew Point Humidity Pressure Visibility Wind Dir Wind Speed Gust Speed Precip Events Conditions
12:46 AM 44.6 °F - 42.8 °F 93% 30.20 in 2.5 mi Calm Calm - N/A   Overcast
12:53 AM 45.0 °F - 42.1 °F 90% 30.20 in 2.5 mi Calm Calm - N/A   Overcast
1:53 AM 45.0 °F - 43.0 °F 93% 30.19 in 3.0 mi Calm Calm - N/A   Overcast
2:01 AM 44.6 °F - 42.8 °F 93% 30.19 in 2.5 mi Calm Calm - N/A   Overcast
2:10 AM 44.6 °F - 42.8 °F 93% 30.19 in 3.0 mi Calm Calm - N/A   Overcast
2:53 AM 45.0 °F 42.6 °F 43.0 °F 93% 30.17 in 2.5 mi SSE 4.6 mph - N/A   Overcast
3:37 AM 44.6 °F 41.4 °F 42.8 °F 93% 30.15 in 1.8 mi SE 5.8 mph - N/A   Overcast
3:53 AM 44.1 °F 40.8 °F 43.0 °F 96% 30.15 in 1.0 mi SE 5.8 mph - N/A   Overcast
4:02 AM 44.6 °F - 42.8 °F 93% 30.15 in 0.5 mi Calm Calm - N/A Fog Fog
4:53 AM 43.0 °F 41.3 °F 43.0 °F 100% 30.14 in 0.2 mi SE 3.5 mph - N/A Fog Fog
5:53 AM 43.0 °F 38.2 °F 42.1 °F 97% 30.10 in 0.2 mi East 8.1 mph - N/A Fog Fog
6:53 AM 43.0 °F 39.5 °F 42.1 °F 97% 30.12 in 0.5 mi SE 5.8 mph - N/A Fog Fog
7:20 AM 42.8 °F 40.1 °F 42.8 °F 100% 30.12 in 2.0 mi SSE 4.6 mph - N/A   Overcast
7:32 AM 42.8 °F 41.1 °F 42.8 °F 100% 30.12 in 1.0 mi ESE 3.5 mph - N/A   Overcast
7:39 AM 42.8 °F 41.1 °F 42.8 °F 100% 30.13 in 0.8 mi ESE 3.5 mph - N/A   Overcast
7:53 AM 43.0 °F 41.3 °F 43.0 °F 100% 30.14 in 0.8 mi ESE 3.5 mph - N/A   Overcast
8:00 AM 42.8 °F 40.1 °F 42.8 °F 100% 30.13 in 1.0 mi ESE 4.6 mph - N/A   Overcast
8:07 AM 42.8 °F 40.1 °F 42.8 °F 100% 30.13 in 0.5 mi SE 4.6 mph - N/A Fog Fog
8:32 AM 44.6 °F - 42.8 °F 93% 30.14 in 1.5 mi Calm Calm - N/A   Overcast
8:53 AM 44.1 °F 41.5 °F 43.0 °F 96% 30.14 in 1.0 mi ENE 4.6 mph - N/A   Overcast
9:15 AM 44.6 °F 43.1 °F 44.6 °F 100% 30.14 in 2.0 mi East 3.5 mph - N/A   Overcast
9:46 AM 44.6 °F 43.1 °F 42.8 °F 93% 30.15 in 3.0 mi ESE 3.5 mph - N/A   Overcast
9:53 AM 46.0 °F 44.8 °F 43.0 °F 89% 30.15 in 3.0 mi East 3.5 mph - N/A   Overcast
10:42 AM 46.4 °F 44.3 °F 44.6 °F 93% 30.14 in 5.0 mi ESE 4.6 mph - N/A   Overcast
10:53 AM 48.0 °F - 45.0 °F 89% 30.14 in 6.0 mi Calm Calm - N/A   Mostly Cloudy
11:02 AM 48.2 °F - 44.6 °F 87% 30.13 in 6.0 mi East 3.5 mph - N/A   Mostly Cloudy
11:11 AM 48.2 °F - 44.6 °F 87% 30.13 in 6.0 mi Calm Calm - N/A   Overcast
11:26 AM 48.2 °F - 44.6 °F 87% 30.13 in 7.0 mi Calm Calm - N/A   Mostly Cloudy
11:33 AM 48.2 °F - 44.6 °F 87% 30.13 in 7.0 mi Calm Calm - N/A   Mostly Cloudy
11:43 AM 48.2 °F - 44.6 °F 87% 30.12 in 7.0 mi Calm Calm - N/A   Overcast
11:53 AM 48.9 °F - 45.0 °F 86% 30.12 in 7.0 mi Calm Calm - N/A   Overcast
12:00 PM 48.2 °F - 44.6 °F 87% 30.12 in 7.0 mi Calm Calm - N/A   Overcast
12:53 PM 50.0 °F - 44.1 °F 80% 30.09 in 9.0 mi Calm Calm - N/A   Mostly Cloudy
1:53 PM 50.0 °F - 44.1 °F 80% 30.07 in 10.0 mi NE 3.5 mph - N/A   Overcast
2:53 PM 50.0 °F - 44.1 °F 80% 30.03 in 4.0 mi ESE 11.5 mph - 0.00 in Rain Light Rain
3:53 PM 50.0 °F - 46.0 °F 86% 29.97 in 9.0 mi East 11.5 mph - 0.04 in   Overcast
4:53 PM 50.0 °F - 45.0 °F 83% 29.93 in 10.0 mi ESE 11.5 mph - N/A   Overcast
5:53 PM 48.9 °F - 45.0 °F 86% 29.93 in 9.0 mi North - - 0.01 in   Overcast
6:12 PM 48.2 °F - 44.6 °F 87% 29.92 in 5.0 mi North - - N/A   Overcast
6:20 PM 46.4 °F - 44.6 °F 93% 29.92 in 4.0 mi North - - N/A   Overcast
6:53 PM 46.9 °F - 44.1 °F 90% 29.92 in 5.0 mi North - - N/A   Overcast
7:53 PM 46.9 °F - 44.1 °F 90% 29.94 in 5.0 mi North - - 0.02 in Rain Light Rain
8:53 PM 46.9 °F - 44.1 °F 90% 29.91 in 4.0 mi North - - 0.05 in Rain Rain
9:53 PM 46.9 °F - 43.0 °F 86% 29.93 in 5.0 mi North - - 0.16 in Rain Light Rain
10:53 PM 46.9 °F - 43.0 °F 86% 29.92 in 6.0 mi North - - 0.03 in Rain Light Rain
11:53 PM 46.0 °F - 42.1 °F 86% 29.93 in 5.0 mi North - - 0.04 in Rain Light Rain